Cancun, Mexico

11:09 PM on December 12, 2017 (GMT +0000)
Cancun International

Weather History for MMUN - June, 2013

Change the Weather History Date:

Friday, June 21, 2013

  Actual Average Record
Temperature  
Mean Temperature 82 °F -  
Max Temperature 87 °F 89 °F 91 °F (1998)
Min Temperature 77 °F 74 °F 71 °F (2000)
Cooling Degree Days 17    
Growing Degree Days 32 (Base 50)    
Moisture  
Dew Point 76 °F    
Average Humidity 78    
Maximum Humidity 100    
Minimum Humidity 66    
Precipitation  
Precipitation 0.00 in - - ()
Sea Level Pressure  
Sea Level Pressure 30.00 in    
Wind  
Wind Speed 6 mph ()    
Max Wind Speed 10 mph    
Max Gust Speed -    
Visibility 6.9 miles    
Events      
Averages and records for this station are not official NWS values.
T = Trace of Precipitation, MM = Missing Value Source: Averaged Metar Reports

Daily Weather History Graph

Daily Weather History Graph

Search for Another Location

Airport or City:

Trip Planner

Search our weather history database for the weather conditions in past years. The results will help you decide how hot, cold, wet, or windy it might be!

Date:

Astronomy

Jun. 21, 2013 Rise Set
Actual Time 6:06 AM CDT 7:31 PM CDT
Civil Twilight 5:42 AM CDT 7:56 PM CDT
Nautical Twilight 5:12 AM CDT 8:26 PM CDT
Astronomical Twilight 4:41 AM CDT 8:56 PM CDT
Moon 5:49 PM CDT (6/21) 4:12 AM CDT (6/21)
Length of Visible Light 14h 14m
Length of Day
13h 24m
Waxing Gibbous, 95% of the Moon is Illuminated
Jun 21
Waxing Gibbous
Jun 23
Full
Jun 29
Last Quarter
Jul 8
New
Jul 15
First Quarter

Hourly Weather History & Observations

Time (CDT) Temp. Heat Index Dew Point Humidity Pressure Visibility Wind Dir Wind Speed Gust Speed Precip Events Conditions
12:45 AM 82.4 °F 89.5 °F 75.2 °F 79% 29.98 in 7.0 mi East 5.8 mph - N/A   Scattered Clouds
1:44 AM 82.4 °F 90.9 °F 77.0 °F 84% 29.99 in 7.0 mi ENE 6.9 mph - N/A   Scattered Clouds
2:43 AM 80.6 °F 87.1 °F 77.0 °F 89% 29.98 in 7.0 mi East 8.1 mph - N/A   Partly Cloudy
3:46 AM 80.6 °F 86.2 °F 75.2 °F 84% 29.95 in 7.0 mi SE 5.8 mph - N/A   Clear
4:45 AM 80.6 °F 85.4 °F 73.4 °F 79% 29.96 in 7.0 mi East 5.8 mph - N/A   Clear
5:44 AM 78.8 °F - 73.4 °F 83% 29.97 in 7.0 mi ENE 5.8 mph - N/A   Partly Cloudy
6:43 AM 80.6 °F 87.1 °F 77.0 °F 89% 29.98 in 7.0 mi East 5.8 mph - N/A   Scattered Clouds
7:43 AM 84.2 °F 92.3 °F 75.2 °F 74% 30.00 in 7.0 mi East 6.9 mph - N/A   Scattered Clouds
8:41 AM 84.2 °F 92.3 °F 75.2 °F 74% 30.01 in 7.0 mi ESE 8.1 mph - N/A   Mostly Cloudy
9:42 AM 86.0 °F 95.1 °F 75.2 °F 70% 30.02 in 7.0 mi ESE 8.1 mph - N/A   Mostly Cloudy
10:40 AM 86.0 °F 93.4 °F 73.4 °F 66% 30.03 in 7.0 mi East 9.2 mph - N/A   Mostly Cloudy
11:42 AM 87.8 °F 97.6 °F 75.2 °F 66% 30.03 in 7.0 mi East 10.4 mph - N/A   Mostly Cloudy
12:41 PM 86.0 °F 95.1 °F 75.2 °F 70% 30.03 in 7.0 mi East 6.9 mph - N/A   Mostly Cloudy
1:41 PM 86.0 °F 95.1 °F 75.2 °F 70% 30.02 in 7.0 mi East 5.8 mph - N/A   Scattered Clouds
2:42 PM 87.8 °F 97.6 °F 75.2 °F 66% 30.01 in 7.0 mi East 10.4 mph - N/A   Scattered Clouds
3:40 PM 87.8 °F 97.6 °F 75.2 °F 66% 30.00 in 7.0 mi ESE 9.2 mph - N/A   Scattered Clouds
4:42 PM 87.8 °F 97.6 °F 75.2 °F 66% 29.98 in 7.0 mi East 9.2 mph - N/A   Scattered Clouds
5:40 PM 86.0 °F 96.9 °F 77.0 °F 74% 29.98 in 7.0 mi East 9.2 mph - N/A   Mostly Cloudy
6:45 PM 77.0 °F - 77.0 °F 100% 29.99 in 7.0 mi East 8.1 mph - N/A   Mostly Cloudy
7:42 PM 82.4 °F 90.9 °F 77.0 °F 84% 29.99 in 7.0 mi East 4.6 mph - N/A   Mostly Cloudy
8:40 PM 82.4 °F 90.9 °F 77.0 °F 84% 30.00 in 7.0 mi East 9.2 mph - N/A   Scattered Clouds
9:42 PM 82.4 °F 90.9 °F 77.0 °F 84% 30.02 in 6.0 mi East 5.8 mph - N/A   Scattered Clouds
10:41 PM 82.4 °F 90.9 °F 77.0 °F 84% 30.03 in 6.0 mi East 5.8 mph - N/A   Scattered Clouds
11:41 PM 82.4 °F 90.9 °F 77.0 °F 84% 30.03 in 6.0 mi East 5.8 mph - N/A   Scattered Clouds